Location: Newark
(54.6833°N, 25.2833°E)
Time: 14:19:37
(UTC+00:00)

Altair - Pass Details

Date: 12 November 2019
Orbit: 1502 x 1682 km, 47.2° (Epoch: 05 December)

Event Time Altitude Azimuth Distance (km) Brightness Sun altitude
Rises 11:09:13 0° 280° (W) 4,731 10.1 16.3°
Reaches altitude 10° 11:16:21 10° 244° (WSW) 3,794 10.3 16.0°
Maximum altitude 11:17:41 10° 236° (SW) 3,776 10.5 15.9°
Drops below altitude 10° 11:19:00 10° 228° (SW) 3,813 10.8 15.8°
Sets 11:26:22 0° 192° (SSW) 4,846 11.9 15.5°
